Location: Camden Lake
(44.4269°N, 76.8469°W)
Time: 19:19:15
(UTC-05:00)

Daily predictions for brighter satellites

Satellite Brightness Start Highest point End
(mag) Time Altitude Azimuth Time Altitude Azimuth Time Altitude Azimuth
BREEZE-M DEB (TANK) 4.1 16:51:14 10° WNW 17:00:44 75° SSW 17:04:38 10° SE
COSMOS 2406 3.4 16:55:36 10° NNW 17:01:09 49° ENE 17:06:41 10° SE
Cosmos 1048 Rocket 4.1 16:56:07 10° NNW 17:01:22 60° ENE 17:06:39 10° SSE
ISS -1.3 17:01:03 10° S 17:03:17 17° SE 17:05:32 10° E
Cosmos 158 Rocket 4.3 16:59:33 10° N 17:04:44 45° ENE 17:09:48 10° SE
Cosmos 2278 Rocket 4.0 17:03:14 10° ESE 17:05:18 12° E 17:07:22 10° ENE
SL-16 R/B 4.3 17:00:29 10° N 17:05:35 28° WNW 17:10:41 10° WSW
Meteor 1-5 Rocket 4.4 17:07:04 10° N 17:12:16 48° ENE 17:17:35 10° SSE
SPOT 3 Rocket 3.5 17:12:38 10° SSE 17:17:46 65° ENE 17:22:55 10° N
CZ-2C R/B 2.5 17:12:59 10° SSE 17:17:50 61° ENE 17:22:52 10° N
Cosmos 1602 4.3 17:17:32 10° NNW 17:21:27 62° W 17:25:17 10° S
Cosmos 1484 Rocket 3.8 17:18:34 10° ESE 17:21:35 23° ENE 17:24:35 10° NNE
ATLAS CENTAUR R/B 4.0 17:20:41 10° WNW 17:23:19 15° NW 17:25:51 10° N
Cosmos 1238 Rocket 3.7 17:22:38 10° SE 17:24:40 17° E 17:25:31 15° ENE
PAYLOAD A 4.1 17:21:02 10° S 17:25:47 77° WSW 17:30:45 10° NNW
Cosmos 2082 Rocket 3.7 17:23:52 10° N 17:27:06 15° NE 17:28:55 13° ENE
CRYOSAT 2 4.4 17:22:45 10° NNE 17:27:37 60° E 17:32:26 10° S
Cosmos 2154 Rocket 4.4 17:22:14 10° NNW 17:28:24 69° W 17:34:36 10° S
IDEFIX/ARIANE 42P 2.5 17:26:36 10° SSE 17:31:48 79° ENE 17:37:01 10° N
Cosmos 1833 Rocket 4.2 17:32:15 10° N 17:35:27 15° NE 17:36:28 14° NE
USA 32 4.1 17:31:09 10° SSE 17:36:13 53° E 17:41:18 10° NNE
Okean 1 Rocket 4.3 17:33:45 10° NNW 17:37:52 44° W 17:41:59 10° SSW
BREEZE M DEB (TANK) 3.1 17:35:09 10° WNW 17:37:53 42° N 17:42:21 16° ENE
Cosmos 1536 3.3 17:34:43 10° NNW 17:38:45 66° W 17:42:47 10° S
Okean 1 4.5 17:37:38 10° SE 17:40:50 23° E 17:42:08 19° ENE
COSMO-SKYMED 1 3.3 17:39:19 12° NE 17:42:57 33° E 17:46:51 10° SSE
Cosmos 1544 Rocket 3.6 17:40:51 10° N 17:45:16 58° E 17:49:39 10° SSE
APEX 4.5 17:38:36 10° SSW 17:45:21 77° WNW 17:50:42 10° NNE
USA 234 3.6 17:42:38 13° NE 17:48:28 59° NNW 17:54:51 10° WSW
Cosmos 1975 Rocket 3.2 17:45:20 10° SSW 17:49:37 75° W 17:53:58 10° N
Cosmos 372 Rocket 4.1 17:45:25 10° SSW 17:50:41 84° WNW 17:55:59 10° NNE
MSX 3.8 17:45:05 10° SSE 17:50:50 80° ENE 17:56:37 10° NNW
SMAP 3.5 17:47:30 10° S 17:52:07 64° WSW 17:56:45 10° NNW
Meteor 1-28 Rocket 4.5 17:54:50 23° ESE 17:54:50 23° ESE 17:57:31 10° SSE
Thor Agena Rocket 3.8 17:50:15 10° N 17:55:25 72° WNW 18:00:37 10° SSW
Cosmos 2263 Rocket 3.8 17:51:48 10° WSW 17:56:41 30° NW 18:01:38 10° N
CZ-3B DEB 2.4 17:55:37 10° SSW 17:59:22 56° SE 18:05:05 20° ENE
Cosmos 1125 Rocket 4.4 17:54:50 10° SW 17:59:58 49° WNW 18:05:09 10° N
CZ-4 R/B 3.2 17:56:42 10° SSW 18:00:33 36° W 18:04:27 10° NNW
Cosmos 1346 Rocket 4.3 18:01:08 10° SSE 18:02:56 20° SE 18:02:56 20° SE
Cosmos 494 Rocket 3.9 18:00:28 10° NNW 18:05:41 64° ENE 18:10:53 10° SSE
Cosmos 1536 Rocket 3.7 18:01:48 10° S 18:06:07 52° E 18:09:12 18° NNE
SL-8 Rocket 4.2 18:02:57 10° NNW 18:09:05 72° W 18:15:12 10° S
ATLAS 2AS CENTAUR R/B 3.0 18:01:19 10° NW 18:09:31 83° NE 18:17:09 10° SE
Cosmos 1812 2.6 18:06:01 10° S 18:09:51 68° E 18:12:07 23° NNE
Meteor 1-12 Rocket 4.2 18:05:33 10° N 18:11:19 74° E 18:17:09 10° SSE
Cosmos 2251 Rocket 3.4 18:06:54 10° NNW 18:12:18 84° ENE 18:17:38 10° SSE
YAOGAN 1 4.0 18:08:37 10° SSW 18:12:41 39° W 18:16:47 10° NNW
SKYMED 3 4.5 18:09:41 16° NNE 18:13:04 69° ESE 18:17:24 10° S
Cosmos 2366 rocket 4.1 18:12:13 10° N 18:18:37 83° W 18:24:56 10° S
Abrixas 3.6 18:16:12 10° WNW 18:18:36 33° NNW 18:18:36 33° NNW
Cosmos 2218 Rocket 4.2 18:12:40 10° NNW 18:18:59 73° W 18:25:10 10° S
Cosmos 1975 2.7 18:14:58 10° N 18:19:04 67° E 18:23:05 10° SSE
OTV 4 3.0 18:20:39 10° SW 18:22:31 15° SSW 18:23:24 14° S
Cosmos 1844 Rocket 2.8 18:17:33 10° SSW 18:23:08 72° WNW 18:27:30 17° NNE
Timation 2 Rocket 4.4 18:18:56 10° NNW 18:25:25 45° NE 18:28:08 31° ESE
SL-27 R/B 3.6 18:25:41 10° NNW 18:29:14 45° WSW 18:32:42 10° S
Cosmos 1844 3.6 18:24:32 10° SSW 18:30:06 84° WNW 18:33:29 25° NNE
GEOS 3 Rocket 4.0 18:25:41 10° SSE 18:30:44 61° SW 18:35:49 10° NW
SKYMED 2 3.6 18:27:57 18° N 18:31:08 77° WNW 18:35:27 10° SSW
DMSP B5D1-3 4.4 18:27:57 19° NNE 18:31:47 78° ESE 18:36:55 10° S
Cosmos 1241 Rocket 4.5 18:28:11 10° NNW 18:34:50 76° NE 18:39:45 19° SE
Cosmos 1455 Rocket 3.8 18:30:49 10° NNW 18:35:06 53° W 18:39:23 10° S
SL-8 R/B 4.3 18:34:39 10° SSW 18:39:03 40° SE 18:39:03 40° SE
ISS -2.5 18:36:10 10° WSW 18:38:49 52° W 18:38:49 52° W
Cosmos 2239 Rocket 4.4 18:40:34 10° N 18:46:42 56° ENE 18:52:43 10° SSE
BREEZE-M R/B 3.7 18:37:19 10° SW 18:46:43 69° SSE 18:47:38 58° E
Cosmos 2278 Rocket 2.1 18:42:48 10° SSW 18:48:27 85° ESE 18:50:04 49° NNE
Meteor 1-13 Rocket 4.1 18:44:07 10° S 18:49:41 65° E 18:50:26 59° ENE
Cosmos 1809 Rocket 4.5 18:45:06 10° N 18:51:18 81° W 18:57:25 10° S
BREEZE-M DEB (TANK) 4.4 18:46:48 10° WNW 18:52:05 38° NNW 18:52:05 38° NNW
Cosmos 1821 Rocket 3.8 18:48:24 10° N 18:54:28 61° E 18:54:32 61° E
Cosmos 2082 Rocket 2.6 19:06:31 10° NNW 19:10:49 52° N 19:10:49 52° N
Nadezhda 3 Rocket 4.2 19:09:51 10° SSW 19:16:00 68° W 19:21:21 15° N
Cosmos 1833 Rocket 3.6 19:14:44 10° NNW 19:18:13 38° NNW 19:18:13 38° NNW
USA 234 4.3 19:29:59 31° N 19:30:44 32° N 19:36:21 10° WNW
NOSS 3-4 (A) 4.4 19:38:01 10° NNW 19:42:42 44° NNW 19:42:42 44° NNW
NOSS 3-4 (C) 4.4 19:38:07 10° NNW 19:42:47 44° NNW 19:42:47 44° NNW
FALCON 9 R/B 3.9 19:50:15 10° WSW 20:01:52 37° SSW 20:01:52 37° SSW
CZ-3B DEB 4.0 20:29:15 10° W 20:34:11 47° NW 20:34:11 47° NW
